{"data":{"norad_id":67818,"epoch":"2026-05-25T02:07:34.601952Z","epoch_age_seconds":67565,"freshness":"FRESH","line1":"1 67818U 26032X   26145.08859493  .00017925  00000+0  55632-3 0  9994","line2":"2 67818  97.2861 333.2538 0001594  80.7312 279.4111 15.33440368 16674","mean_motion":15.33440368,"eccentricity":0.0001594,"inclination_deg":97.2861,"raan_deg":333.2538,"arg_perigee_deg":80.7312,"mean_anomaly_deg":279.4111,"bstar":0.00055632,"rev_number":1667,"period_min":93.90648831543,"perigee_km":464.46607126933,"apogee_km":466.64784090253,"semimajor_km":6843.6939560859,"source":"CELESTRAK","updated_at":"2026-05-25T13:38:21.696493Z"}}